TimeCST,TemperatureF,Dew PointF,Humidity,Sea Level PressureIn,VisibilityMPH,Wind Direction,Wind SpeedMPH,Gust SpeedMPH,PrecipitationIn,Events,Conditions,WindDirDegrees,DateUTC
12:55 AM,32.0,27.0,82,30.29,10.0,ESE,4.6,-,N/A,,Overcast,110,2012-11-04 05:55:00
1:43 AM,32.0,26.6,80,30.23,10.0,Calm,Calm,-,N/A,,Overcast,0,2012-11-04 06:43:00
1:55 AM,32.0,27.0,82,30.29,10.0,SSE,3.5,-,N/A,,Overcast,150,2012-11-04 06:55:00
1:55 AM,30.9,26.1,82,30.29,10.0,East,4.6,-,N/A,,Overcast,100,2012-11-04 07:55:00
2:55 AM,30.9,25.0,79,30.29,10.0,East,3.5,-,N/A,,Overcast,90,2012-11-04 08:55:00
3:55 AM,28.9,23.0,78,30.29,10.0,East,4.6,-,N/A,,Mostly Cloudy,100,2012-11-04 09:55:00
4:55 AM,27.0,23.0,85,30.31,10.0,Calm,Calm,-,N/A,,Overcast,0,2012-11-04 10:55:00
5:55 AM,28.0,24.1,85,30.31,10.0,Calm,Calm,-,N/A,,Overcast,0,2012-11-04 11:55:00
6:55 AM,30.0,26.1,85,30.31,10.0,Calm,Calm,-,N/A,,Overcast,0,2012-11-04 12:55:00
7:55 AM,30.9,26.1,82,30.31,10.0,Calm,Calm,-,N/A,,Overcast,0,2012-11-04 13:55:00
8:55 AM,32.0,25.0,75,30.30,10.0,ESE,6.9,-,N/A,,Overcast,120,2012-11-04 14:55:00
9:55 AM,33.1,25.0,72,30.30,10.0,ESE,8.1,-,N/A,,Overcast,120,2012-11-04 15:55:00
10:55 AM,34.0,25.0,70,30.29,10.0,ESE,9.2,-,N/A,,Overcast,120,2012-11-04 16:55:00
11:55 AM,34.0,25.0,70,30.28,10.0,East,6.9,-,N/A,,Overcast,90,2012-11-04 17:55:00
12:55 PM,35.1,25.0,67,30.27,10.0,East,5.8,-,N/A,,Overcast,100,2012-11-04 18:55:00
1:55 PM,37.0,25.0,62,30.26,10.0,ENE,11.5,17.3,N/A,,Mostly Cloudy,70,2012-11-04 19:55:00
2:32 PM,37.4,24.8,60,30.19,10.0,East,8.1,-,N/A,,Partly Cloudy,80,2012-11-04 20:32:00
2:55 PM,37.0,24.1,59,30.25,10.0,NE,10.4,-,N/A,,Partly Cloudy,50,2012-11-04 20:55:00
3:55 PM,36.0,24.1,62,30.25,10.0,East,6.9,-,N/A,,Partly Cloudy,80,2012-11-04 21:55:00
4:55 PM,32.0,24.1,73,30.27,10.0,East,6.9,-,N/A,,Partly Cloudy,80,2012-11-04 22:55:00
5:55 PM,30.0,24.1,79,30.28,10.0,East,5.8,-,N/A,,Partly Cloudy,80,2012-11-04 23:55:00
6:55 PM,28.9,24.1,82,30.28,10.0,ENE,6.9,-,N/A,,Scattered Clouds,70,2012-11-05 00:55:00
7:37 PM,28.4,24.8,86,30.21,10.0,ENE,5.8,-,N/A,,Mostly Cloudy,70,2012-11-05 01:37:00
7:46 PM,28.4,24.8,86,30.22,10.0,ENE,4.6,-,N/A,,Scattered Clouds,70,2012-11-05 01:46:00
7:55 PM,28.9,24.1,82,30.28,10.0,ENE,4.6,-,N/A,,Partly Cloudy,70,2012-11-05 01:55:00
8:24 PM,30.2,24.8,80,30.21,10.0,ENE,5.8,-,N/A,,Mostly Cloudy,70,2012-11-05 02:24:00
8:50 PM,30.2,26.6,86,30.21,10.0,East,5.8,-,N/A,,Overcast,80,2012-11-05 02:50:00
8:55 PM,30.9,26.1,82,30.28,10.0,East,6.9,-,N/A,,Overcast,80,2012-11-05 02:55:00
9:55 PM,32.0,27.0,82,30.28,10.0,East,6.9,-,N/A,,Mostly Cloudy,90,2012-11-05 03:55:00
10:02 PM,32.0,28.4,87,30.22,10.0,East,6.9,-,N/A,,Mostly Cloudy,90,2012-11-05 04:02:00
10:55 PM,33.1,27.0,78,30.27,10.0,East,8.1,-,N/A,,Mostly Cloudy,100,2012-11-05 04:55:00